Year,Month,Day,Hour,Minute,Value (Times are PST for windgust in km/hr)
2010,04,27,00,00,19.30
2010,04,27,00,01,16.10
2010,04,27,00,02,16.10
2010,04,27,00,03,9.60
2010,04,27,00,04,17.70
2010,04,27,00,05,22.50
2010,04,27,00,06,17.70
2010,04,27,00,07,25.70
2010,04,27,00,08,20.90
2010,04,27,00,09,16.10
2010,04,27,00,10,17.70
2010,04,27,00,11,19.30
2010,04,27,00,12,19.30
2010,04,27,00,13,22.50
2010,04,27,00,14,22.50
2010,04,27,00,15,27.40
2010,04,27,00,16,17.70
2010,04,27,00,17,25.70
2010,04,27,00,18,30.60
2010,04,27,00,19,29.00
2010,04,27,00,20,16.10
2010,04,27,00,21,38.60
2010,04,27,00,22,19.30
2010,04,27,00,23,24.20
2010,04,27,00,24,35.40
2010,04,27,00,25,24.20
2010,04,27,00,26,24.20
2010,04,27,00,27,24.20
2010,04,27,00,28,30.60
2010,04,27,00,29,25.70
2010,04,27,00,30,37.00
2010,04,27,00,31,25.70
2010,04,27,00,32,19.30
2010,04,27,00,33,27.40
2010,04,27,00,34,25.70
2010,04,27,00,35,38.60
2010,04,27,00,36,46.70
2010,04,27,00,37,27.40
2010,04,27,00,38,30.60
2010,04,27,00,39,25.70
2010,04,27,00,40,22.50
2010,04,27,00,41,29.00
2010,04,27,00,42,35.40
2010,04,27,00,43,24.20
2010,04,27,00,44,14.50
2010,04,27,00,45,22.50
2010,04,27,00,46,29.00
2010,04,27,00,47,25.70
2010,04,27,00,48,24.20
2010,04,27,00,49,27.40
2010,04,27,00,50,24.20
2010,04,27,00,51,40.20
2010,04,27,00,52,30.60
2010,04,27,00,53,25.70
2010,04,27,00,54,24.20
2010,04,27,00,55,22.50
2010,04,27,00,56,32.20
2010,04,27,00,57,29.00
2010,04,27,00,58,32.20
2010,04,27,00,59,27.40
2010,04,27,01,00,20.90
2010,04,27,01,01,37.00
2010,04,27,01,02,19.30
2010,04,27,01,03,19.30
2010,04,27,01,04,24.20
2010,04,27,01,05,35.40
2010,04,27,01,06,30.60
2010,04,27,01,07,22.50
2010,04,27,01,08,22.50
2010,04,27,01,09,24.20
2010,04,27,01,10,32.20
2010,04,27,01,11,24.20
2010,04,27,01,12,27.40
2010,04,27,01,13,14.50
2010,04,27,01,14,20.90
2010,04,27,01,15,35.40
2010,04,27,01,16,22.50
2010,04,27,01,17,30.60
2010,04,27,01,18,33.80
2010,04,27,01,19,17.70
2010,04,27,01,20,30.60
2010,04,27,01,21,22.50
2010,04,27,01,22,20.90
2010,04,27,01,23,9.60
2010,04,27,01,24,32.20
2010,04,27,01,25,20.90
2010,04,27,01,26,16.10
2010,04,27,01,27,24.20
2010,04,27,01,28,27.40
2010,04,27,01,29,16.10
2010,04,27,01,30,17.70
2010,04,27,01,31,27.40
2010,04,27,01,32,25.70
2010,04,27,01,33,22.50
2010,04,27,01,34,35.40
2010,04,27,01,35,45.10
2010,04,27,01,36,22.50
2010,04,27,01,37,14.50
2010,04,27,01,38,25.70
2010,04,27,01,39,38.60
2010,04,27,01,40,29.00
2010,04,27,01,41,29.00
2010,04,27,01,42,29.00
2010,04,27,01,43,16.10
2010,04,27,01,44,30.60
2010,04,27,01,45,11.30
2010,04,27,01,46,30.60
2010,04,27,01,47,20.90
2010,04,27,01,48,20.90
2010,04,27,01,49,33.80
2010,04,27,01,50,22.50
2010,04,27,01,51,19.30
2010,04,27,01,52,27.40
2010,04,27,01,53,22.50
2010,04,27,01,54,30.60
2010,04,27,01,55,16.10
2010,04,27,01,56,29.00
2010,04,27,01,57,35.40
2010,04,27,01,58,22.50
2010,04,27,01,59,19.30
2010,04,27,02,00,29.00
2010,04,27,02,01,20.90
2010,04,27,02,02,16.10
2010,04,27,02,03,27.40
2010,04,27,02,04,32.20
2010,04,27,02,05,35.40
2010,04,27,02,06,32.20
2010,04,27,02,07,22.50
2010,04,27,02,08,29.00
2010,04,27,02,09,30.60
2010,04,27,02,10,27.40
2010,04,27,02,11,24.20
2010,04,27,02,12,32.20
2010,04,27,02,13,19.30
2010,04,27,02,14,17.70
2010,04,27,02,15,29.00
2010,04,27,02,16,20.90
2010,04,27,02,17,32.20
2010,04,27,02,18,25.70
2010,04,27,02,19,25.70
2010,04,27,02,20,22.50
2010,04,27,02,21,20.90
2010,04,27,02,22,24.20
2010,04,27,02,23,20.90
2010,04,27,02,24,20.90
2010,04,27,02,25,22.50
2010,04,27,02,26,24.20
2010,04,27,02,27,22.50
2010,04,27,02,28,22.50
2010,04,27,02,29,22.50
2010,04,27,02,30,24.20
2010,04,27,02,31,22.50
2010,04,27,02,32,24.20
2010,04,27,02,33,25.70
2010,04,27,02,34,19.30
2010,04,27,02,35,16.10
2010,04,27,02,36,25.70
2010,04,27,02,37,25.70
2010,04,27,02,38,25.70
2010,04,27,02,39,20.90
2010,04,27,02,40,32.20
2010,04,27,02,41,19.30
2010,04,27,02,42,20.90
2010,04,27,02,43,19.30
2010,04,27,02,44,19.30
2010,04,27,02,45,11.30
2010,04,27,02,46,24.20
2010,04,27,02,47,16.10
2010,04,27,02,48,19.30
2010,04,27,02,49,12.90
2010,04,27,02,50,14.50
2010,04,27,02,51,14.50
2010,04,27,02,52,14.50
2010,04,27,02,53,11.30
2010,04,27,02,54,6.40
2010,04,27,02,55,14.50
2010,04,27,02,56,11.30
2010,04,27,02,57,9.60
2010,04,27,02,58,9.60
2010,04,27,02,59,11.30
2010,04,27,03,00,9.60
2010,04,27,03,01,8.10
2010,04,27,03,02,14.50
2010,04,27,03,03,11.30
2010,04,27,03,04,9.60
2010,04,27,03,05,14.50
2010,04,27,03,06,11.30
2010,04,27,03,07,9.60
2010,04,27,03,08,8.10
2010,04,27,03,09,4.80
2010,04,27,03,10,8.10
2010,04,27,03,12,4.80
2010,04,27,03,13,9.60
2010,04,27,03,14,4.80
2010,04,27,03,15,6.40
2010,04,27,03,16,4.80
2010,04,27,03,17,11.30
2010,04,27,03,18,9.60
2010,04,27,03,19,8.10
2010,04,27,03,20,9.60
2010,04,27,03,21,6.40
2010,04,27,03,22,8.10
2010,04,27,03,23,11.30
2010,04,27,03,24,6.40
2010,04,27,03,25,4.80
2010,04,27,03,26,8.10
2010,04,27,03,27,6.40
2010,04,27,03,28,8.10
2010,04,27,03,29,9.60
2010,04,27,03,30,9.60
2010,04,27,03,31,9.60
2010,04,27,03,32,14.50
2010,04,27,03,33,11.30
2010,04,27,03,34,14.50
2010,04,27,03,35,12.90
2010,04,27,03,36,11.30
2010,04,27,03,37,16.10
2010,04,27,03,38,16.10
2010,04,27,03,39,9.60
2010,04,27,03,40,8.10
2010,04,27,03,41,4.80
2010,04,27,03,42,8.10
2010,04,27,03,43,6.40
2010,04,27,03,44,1.60
2010,04,27,03,45,1.60
2010,04,27,03,46,8.10
2010,04,27,03,47,6.40
2010,04,27,03,48,4.80
2010,04,27,03,49,4.80
2010,04,27,03,50,3.20
2010,04,27,03,51,9.60
2010,04,27,03,52,9.60
2010,04,27,03,53,9.60
2010,04,27,03,54,6.40
2010,04,27,03,55,4.80
2010,04,27,03,56,4.80
2010,04,27,03,57,6.40
2010,04,27,03,58,8.10
2010,04,27,03,59,4.80
2010,04,27,04,00,3.20
2010,04,27,04,01,9.60
2010,04,27,04,02,8.10
2010,04,27,04,03,14.50
2010,04,27,04,04,9.60
2010,04,27,04,05,16.10
2010,04,27,04,06,12.90
2010,04,27,04,07,11.30
2010,04,27,04,08,8.10
2010,04,27,04,09,17.70
2010,04,27,04,10,17.70
2010,04,27,04,11,12.90
2010,04,27,04,12,14.50
2010,04,27,04,13,9.60
2010,04,27,04,14,14.50
2010,04,27,04,15,14.50
2010,04,27,04,16,9.60
2010,04,27,04,17,12.90
2010,04,27,04,18,12.90
2010,04,27,04,19,11.30
2010,04,27,04,20,17.70
2010,04,27,04,21,9.60
2010,04,27,04,22,14.50
2010,04,27,04,23,11.30
2010,04,27,04,24,14.50
2010,04,27,04,25,14.50
2010,04,27,04,26,14.50
2010,04,27,04,27,9.60
2010,04,27,04,28,14.50
2010,04,27,04,29,19.30
2010,04,27,04,30,6.40
2010,04,27,04,31,11.30
2010,04,27,04,32,8.10
2010,04,27,04,33,17.70
2010,04,27,04,34,9.60
2010,04,27,04,35,11.30
2010,04,27,04,36,8.10
2010,04,27,04,37,6.40
2010,04,27,04,38,8.10
2010,04,27,04,39,16.10
2010,04,27,04,40,17.70
2010,04,27,04,41,9.60
2010,04,27,04,42,16.10
2010,04,27,04,43,16.10
2010,04,27,04,44,9.60
2010,04,27,04,45,17.70
2010,04,27,04,46,9.60
2010,04,27,04,47,14.50
2010,04,27,04,48,11.30
2010,04,27,04,49,9.60
2010,04,27,04,50,11.30
2010,04,27,04,51,11.30
2010,04,27,04,52,11.30
2010,04,27,04,53,9.60
2010,04,27,04,54,19.30
2010,04,27,04,55,16.10
2010,04,27,04,56,11.30
2010,04,27,04,57,14.50
2010,04,27,04,58,16.10
2010,04,27,04,59,19.30
2010,04,27,05,00,14.50
2010,04,27,05,01,9.60
2010,04,27,05,02,12.90
2010,04,27,05,03,17.70
2010,04,27,05,04,16.10
2010,04,27,05,05,11.30
2010,04,27,05,06,11.30
2010,04,27,05,07,8.10
2010,04,27,05,08,12.90
2010,04,27,05,09,14.50
2010,04,27,05,10,12.90
2010,04,27,05,11,14.50
2010,04,27,05,12,11.30
2010,04,27,05,13,6.40
2010,04,27,05,14,8.10
2010,04,27,05,15,11.30
2010,04,27,05,16,14.50
2010,04,27,05,17,12.90
2010,04,27,05,18,8.10
2010,04,27,05,19,9.60
2010,04,27,05,20,8.10
2010,04,27,05,21,9.60
2010,04,27,05,22,9.60
2010,04,27,05,23,16.10
2010,04,27,05,24,6.40
2010,04,27,05,25,14.50
2010,04,27,05,26,24.20
2010,04,27,05,27,17.70
2010,04,27,05,28,11.30
2010,04,27,05,29,14.50
2010,04,27,05,30,9.60
2010,04,27,05,31,17.70
2010,04,27,05,32,14.50
2010,04,27,05,33,8.10
2010,04,27,05,34,14.50
2010,04,27,05,35,19.30
2010,04,27,05,36,20.90
2010,04,27,05,37,16.10
2010,04,27,05,38,8.10
2010,04,27,05,39,8.10
2010,04,27,05,40,9.60
2010,04,27,05,41,16.10
2010,04,27,05,42,17.70
2010,04,27,05,43,20.90
2010,04,27,05,44,11.30
2010,04,27,05,45,9.60
2010,04,27,05,46,14.50
2010,04,27,05,47,20.90
2010,04,27,05,48,6.40
2010,04,27,05,49,22.50
2010,04,27,05,50,16.10
2010,04,27,05,51,6.40
2010,04,27,05,52,9.60
2010,04,27,05,53,8.10
2010,04,27,05,54,16.10
2010,04,27,05,55,8.10
2010,04,27,05,56,1.60
2010,04,27,05,57,9.60
2010,04,27,05,58,9.60
2010,04,27,05,59,3.20
2010,04,27,06,00,3.20
2010,04,27,06,01,3.20
2010,04,27,06,02,3.20
2010,04,27,06,03,1.60
2010,04,27,06,06,4.80
2010,04,27,06,07,3.20
2010,04,27,06,11,4.80
2010,04,27,06,12,4.80
2010,04,27,06,13,1.60
2010,04,27,06,14,1.60
2010,04,27,06,15,1.60
2010,04,27,06,16,3.20
2010,04,27,06,17,3.20
2010,04,27,06,18,3.20
2010,04,27,06,19,3.20
2010,04,27,06,20,3.20
2010,04,27,06,21,1.60
2010,04,27,06,23,1.60
2010,04,27,06,24,1.60
2010,04,27,06,25,1.60
2010,04,27,06,26,3.20
2010,04,27,06,27,4.80
2010,04,27,06,28,6.40
2010,04,27,06,29,8.10
2010,04,27,06,30,6.40
2010,04,27,06,31,6.40
2010,04,27,06,32,3.20
2010,04,27,06,33,4.80
2010,04,27,06,34,6.40
2010,04,27,06,35,4.80
2010,04,27,06,36,4.80
2010,04,27,06,37,1.60
2010,04,27,06,38,3.20
2010,04,27,06,39,3.20
2010,04,27,06,40,4.80
2010,04,27,06,41,4.80
2010,04,27,06,42,4.80
2010,04,27,06,43,4.80
2010,04,27,06,44,3.20
2010,04,27,06,45,3.20
2010,04,27,06,46,3.20
2010,04,27,06,47,3.20
2010,04,27,06,48,3.20
2010,04,27,06,49,3.20
2010,04,27,06,50,4.80
2010,04,27,06,51,3.20
2010,04,27,06,52,3.20
2010,04,27,06,53,1.60
2010,04,27,06,54,3.20
2010,04,27,06,55,4.80
2010,04,27,06,56,3.20
2010,04,27,06,57,1.60
2010,04,27,06,58,6.40
2010,04,27,06,59,3.20
2010,04,27,07,00,4.80
2010,04,27,07,01,3.20
2010,04,27,07,03,1.60
2010,04,27,07,04,4.80
2010,04,27,07,05,3.20
2010,04,27,07,06,4.80
2010,04,27,07,07,1.60
2010,04,27,07,08,1.60
2010,04,27,07,09,3.20
2010,04,27,07,11,1.60
2010,04,27,07,12,3.20
2010,04,27,07,13,3.20
2010,04,27,07,14,1.60
2010,04,27,07,15,1.60
2010,04,27,07,17,1.60
2010,04,27,07,18,1.60
2010,04,27,07,19,3.20
2010,04,27,07,20,3.20
2010,04,27,07,21,3.20
2010,04,27,07,23,4.80
2010,04,27,07,24,3.20
2010,04,27,07,25,6.40
2010,04,27,07,26,3.20
2010,04,27,07,27,3.20
2010,04,27,07,29,4.80
2010,04,27,07,30,1.60
2010,04,27,07,32,3.20
2010,04,27,07,33,1.60
2010,04,27,07,35,3.20
2010,04,27,07,36,1.60
2010,04,27,07,37,1.60
2010,04,27,07,40,3.20
2010,04,27,07,41,1.60
2010,04,27,07,42,3.20
2010,04,27,07,43,1.60
2010,04,27,07,44,4.80
2010,04,27,07,45,4.80
2010,04,27,07,46,3.20
2010,04,27,07,47,3.20
2010,04,27,07,48,4.80
2010,04,27,07,49,3.20
2010,04,27,07,50,3.20
2010,04,27,07,51,1.60
2010,04,27,07,52,3.20
2010,04,27,07,53,6.40
2010,04,27,07,54,1.60
2010,04,27,07,55,6.40
2010,04,27,07,56,6.40
2010,04,27,07,57,6.40
2010,04,27,07,58,6.40
2010,04,27,07,59,8.10
2010,04,27,08,00,1.60
2010,04,27,08,01,4.80
2010,04,27,08,02,3.20
2010,04,27,08,03,8.10
2010,04,27,08,04,14.50
2010,04,27,08,05,11.30
2010,04,27,08,06,8.10
2010,04,27,08,07,6.40
2010,04,27,08,09,1.60
2010,04,27,08,10,3.20
2010,04,27,08,11,4.80
2010,04,27,08,12,6.40
2010,04,27,08,13,3.20
2010,04,27,08,14,6.40
2010,04,27,08,15,6.40
2010,04,27,08,16,11.30
2010,04,27,08,17,9.60
2010,04,27,08,18,6.40
2010,04,27,08,19,6.40
2010,04,27,08,20,3.20
2010,04,27,08,21,1.60
2010,04,27,08,23,6.40
2010,04,27,08,24,3.20
2010,04,27,08,25,1.60
2010,04,27,08,26,1.60
2010,04,27,08,27,3.20
2010,04,27,08,28,1.60
2010,04,27,08,29,3.20
2010,04,27,08,30,6.40
2010,04,27,08,31,3.20
2010,04,27,08,32,6.40
2010,04,27,08,33,6.40
2010,04,27,08,34,3.20
2010,04,27,08,35,3.20
2010,04,27,08,36,4.80
2010,04,27,08,37,6.40
2010,04,27,08,38,6.40
2010,04,27,08,39,3.20
2010,04,27,08,40,1.60
2010,04,27,08,41,1.60
2010,04,27,08,43,1.60
2010,04,27,08,44,4.80
2010,04,27,08,45,3.20
2010,04,27,08,46,1.60
2010,04,27,08,49,4.80
2010,04,27,08,50,4.80
2010,04,27,08,51,1.60
2010,04,27,08,52,3.20
2010,04,27,08,53,3.20
2010,04,27,08,55,4.80
2010,04,27,08,56,3.20
2010,04,27,08,57,1.60
2010,04,27,08,58,3.20
2010,04,27,08,59,3.20
2010,04,27,09,00,1.60
2010,04,27,09,05,1.60
2010,04,27,09,07,1.60
2010,04,27,09,08,1.60
2010,04,27,09,09,4.80
2010,04,27,09,12,3.20
2010,04,27,09,15,3.20
2010,04,27,09,16,3.20
2010,04,27,09,17,3.20
2010,04,27,09,18,1.60
2010,04,27,09,19,4.80
2010,04,27,09,20,6.40
2010,04,27,09,21,3.20
2010,04,27,09,22,6.40
2010,04,27,09,23,4.80
2010,04,27,09,24,1.60
2010,04,27,09,25,8.10
2010,04,27,09,26,4.80
2010,04,27,09,27,4.80
2010,04,27,09,28,6.40
2010,04,27,09,29,1.60
2010,04,27,09,30,1.60
2010,04,27,09,31,8.10
2010,04,27,09,32,4.80
2010,04,27,09,33,6.40
2010,04,27,09,34,11.30
2010,04,27,09,35,6.40
2010,04,27,09,36,8.10
2010,04,27,09,37,6.40
2010,04,27,09,38,11.30
2010,04,27,09,39,8.10
2010,04,27,09,40,9.60
2010,04,27,09,41,6.40
2010,04,27,09,42,9.60
2010,04,27,09,43,11.30
2010,04,27,09,44,8.10
2010,04,27,09,45,8.10
2010,04,27,09,46,8.10
2010,04,27,09,47,6.40
2010,04,27,09,48,4.80
2010,04,27,09,49,4.80
2010,04,27,09,50,4.80
2010,04,27,09,51,6.40
2010,04,27,09,52,9.60
2010,04,27,09,53,8.10
2010,04,27,09,54,11.30
2010,04,27,09,55,11.30
2010,04,27,09,56,9.60
2010,04,27,09,57,9.60
2010,04,27,09,58,8.10
2010,04,27,09,59,8.10
2010,04,27,10,00,8.10
2010,04,27,10,01,6.40
2010,04,27,10,02,8.10
2010,04,27,10,03,8.10
2010,04,27,10,04,4.80
2010,04,27,10,05,6.40
2010,04,27,10,06,4.80
2010,04,27,10,07,3.20
2010,04,27,10,08,1.60
2010,04,27,10,09,8.10
2010,04,27,10,10,9.60
2010,04,27,10,11,9.60
2010,04,27,10,12,9.60
2010,04,27,10,13,9.60
2010,04,27,10,14,9.60
2010,04,27,10,15,11.30
2010,04,27,10,16,8.10
2010,04,27,10,17,9.60
2010,04,27,10,18,8.10
2010,04,27,10,19,8.10
2010,04,27,10,20,6.40
2010,04,27,10,21,8.10
2010,04,27,10,22,8.10
2010,04,27,10,23,4.80
2010,04,27,10,24,8.10
2010,04,27,10,25,9.60
2010,04,27,10,26,4.80
2010,04,27,10,27,4.80
2010,04,27,10,28,8.10
2010,04,27,10,29,6.40
2010,04,27,10,30,11.30
2010,04,27,10,31,9.60
2010,04,27,10,32,9.60
2010,04,27,10,33,9.60
2010,04,27,10,34,6.40
2010,04,27,10,35,9.60
2010,04,27,10,36,9.60
2010,04,27,10,37,8.10
2010,04,27,10,38,8.10
2010,04,27,10,39,8.10
2010,04,27,10,40,14.50
2010,04,27,10,41,11.30
2010,04,27,10,42,11.30
2010,04,27,10,43,8.10
2010,04,27,10,44,4.80
2010,04,27,10,45,9.60
2010,04,27,10,46,8.10
2010,04,27,10,47,8.10
2010,04,27,10,48,8.10
2010,04,27,10,49,8.10
2010,04,27,10,50,6.40
2010,04,27,10,51,8.10
2010,04,27,10,52,11.30
2010,04,27,10,53,8.10
2010,04,27,10,54,14.50
2010,04,27,10,55,9.60
2010,04,27,10,56,8.10
2010,04,27,10,57,12.90
2010,04,27,10,58,8.10
2010,04,27,10,59,8.10
2010,04,27,11,00,3.20
2010,04,27,11,01,8.10
2010,04,27,11,02,11.30
2010,04,27,11,03,8.10
2010,04,27,11,04,11.30
2010,04,27,11,05,14.50
2010,04,27,11,06,16.10
2010,04,27,11,07,11.30
2010,04,27,11,08,9.60
2010,04,27,11,09,3.20
2010,04,27,11,10,16.10
2010,04,27,11,11,11.30
2010,04,27,11,12,11.30
2010,04,27,11,13,9.60
2010,04,27,11,14,6.40
2010,04,27,11,15,14.50
2010,04,27,11,16,9.60
2010,04,27,11,17,17.70
2010,04,27,11,18,19.30
2010,04,27,11,19,20.90
2010,04,27,11,20,17.70
2010,04,27,11,21,16.10
2010,04,27,11,22,14.50
2010,04,27,11,23,17.70
2010,04,27,11,24,17.70
2010,04,27,11,25,9.60
2010,04,27,11,26,11.30
2010,04,27,11,27,8.10
2010,04,27,11,28,11.30
2010,04,27,11,29,11.30
2010,04,27,11,30,4.80
2010,04,27,11,31,8.10
2010,04,27,11,32,8.10
2010,04,27,11,33,16.10
2010,04,27,11,34,6.40
2010,04,27,11,35,9.60
2010,04,27,11,36,14.50
2010,04,27,11,37,8.10
2010,04,27,11,38,9.60
2010,04,27,11,39,8.10
2010,04,27,11,40,8.10
2010,04,27,11,41,9.60
2010,04,27,11,42,17.70
2010,04,27,11,43,19.30
2010,04,27,11,44,19.30
2010,04,27,11,45,11.30
2010,04,27,11,46,14.50
2010,04,27,11,47,14.50
2010,04,27,11,48,11.30
2010,04,27,11,49,14.50
2010,04,27,11,50,17.70
2010,04,27,11,51,17.70
2010,04,27,11,52,19.30
2010,04,27,11,53,16.10
2010,04,27,11,54,16.10
2010,04,27,11,55,19.30
2010,04,27,11,56,14.50
2010,04,27,11,57,19.30
2010,04,27,11,58,14.50
2010,04,27,11,59,16.10
2010,04,27,12,00,17.70
2010,04,27,12,01,16.10
2010,04,27,12,02,14.50
2010,04,27,12,03,9.60
2010,04,27,12,04,9.60
2010,04,27,12,05,16.10
2010,04,27,12,06,19.30
2010,04,27,12,07,17.70
2010,04,27,12,08,16.10
2010,04,27,12,09,22.50
2010,04,27,12,10,17.70
2010,04,27,12,11,16.10
2010,04,27,12,12,16.10
2010,04,27,12,13,16.10
2010,04,27,12,14,16.10
2010,04,27,12,15,16.10
2010,04,27,12,16,16.10
2010,04,27,12,17,6.40
2010,04,27,12,18,17.70
2010,04,27,12,19,8.10
2010,04,27,12,20,14.50
2010,04,27,12,21,9.60
2010,04,27,12,22,11.30
2010,04,27,12,23,9.60
2010,04,27,12,24,20.90
2010,04,27,12,25,11.30
2010,04,27,12,26,16.10
2010,04,27,12,27,17.70
2010,04,27,12,28,11.30
2010,04,27,12,29,20.90
2010,04,27,12,30,17.70
2010,04,27,12,31,16.10
2010,04,27,12,32,19.30
2010,04,27,12,33,17.70
2010,04,27,12,34,17.70
2010,04,27,12,35,9.60
2010,04,27,12,36,16.10
2010,04,27,12,37,17.70
2010,04,27,12,38,20.90
2010,04,27,12,39,19.30
2010,04,27,12,40,20.90
2010,04,27,12,41,20.90
2010,04,27,12,42,25.70
2010,04,27,12,43,17.70
2010,04,27,12,44,20.90
2010,04,27,12,45,27.40
2010,04,27,12,46,22.50
2010,04,27,12,47,24.20
2010,04,27,12,48,20.90
2010,04,27,12,49,22.50
2010,04,27,12,50,30.60
2010,04,27,12,51,29.00
2010,04,27,12,52,24.20
2010,04,27,12,53,19.30
2010,04,27,12,54,29.00
2010,04,27,12,55,25.70
2010,04,27,12,56,29.00
2010,04,27,12,57,25.70
2010,04,27,12,58,25.70
2010,04,27,12,59,29.00
2010,04,27,13,00,25.70
2010,04,27,13,01,29.00
2010,04,27,13,02,29.00
2010,04,27,13,03,27.40
2010,04,27,13,04,30.60
2010,04,27,13,05,24.20
2010,04,27,13,06,9.60
2010,04,27,13,07,17.70
2010,04,27,13,08,29.00
2010,04,27,13,09,27.40
2010,04,27,13,10,27.40
2010,04,27,13,11,22.50
2010,04,27,13,12,27.40
2010,04,27,13,13,19.30
2010,04,27,13,14,30.60
2010,04,27,13,15,22.50
2010,04,27,13,16,24.20
2010,04,27,13,17,22.50
2010,04,27,13,18,22.50
2010,04,27,13,19,14.50
2010,04,27,13,20,22.50
2010,04,27,13,21,24.20
2010,04,27,13,22,24.20
2010,04,27,13,23,14.50
2010,04,27,13,24,17.70
2010,04,27,13,25,9.60
2010,04,27,13,26,20.90
2010,04,27,13,27,20.90
2010,04,27,13,28,25.70
2010,04,27,13,29,20.90
2010,04,27,13,30,19.30
2010,04,27,13,31,25.70
2010,04,27,13,32,25.70
2010,04,27,13,33,20.90
2010,04,27,13,34,22.50
2010,04,27,13,35,19.30
2010,04,27,13,36,11.30
2010,04,27,13,37,14.50
2010,04,27,13,38,17.70
2010,04,27,13,39,16.10
2010,04,27,13,40,17.70
2010,04,27,13,41,22.50
2010,04,27,13,42,16.10
2010,04,27,13,43,17.70
2010,04,27,13,44,11.30
2010,04,27,13,45,20.90
2010,04,27,13,46,11.30
2010,04,27,13,47,14.50
2010,04,27,13,48,20.90
2010,04,27,13,49,17.70
2010,04,27,13,50,22.50
2010,04,27,13,51,17.70
2010,04,27,13,52,11.30
2010,04,27,13,53,16.10
2010,04,27,13,54,19.30
2010,04,27,13,55,24.20
2010,04,27,13,56,17.70
2010,04,27,13,57,14.50
2010,04,27,13,58,12.90
2010,04,27,13,59,11.30
2010,04,27,14,00,14.50
2010,04,27,14,01,11.30
2010,04,27,14,02,14.50
2010,04,27,14,03,19.30
2010,04,27,14,04,19.30
2010,04,27,14,05,32.20
2010,04,27,14,06,22.50
2010,04,27,14,07,20.90
2010,04,27,14,08,22.50
2010,04,27,14,09,19.30
2010,04,27,14,10,12.90
2010,04,27,14,11,17.70
2010,04,27,14,12,17.70
2010,04,27,14,13,19.30
2010,04,27,14,14,19.30
2010,04,27,14,15,17.70
2010,04,27,14,16,16.10
2010,04,27,14,17,24.20
2010,04,27,14,18,22.50
2010,04,27,14,19,27.40
2010,04,27,14,20,19.30
2010,04,27,14,21,19.30
2010,04,27,14,22,17.70
2010,04,27,14,23,17.70
2010,04,27,14,24,19.30
2010,04,27,14,25,20.90
2010,04,27,14,26,19.30
2010,04,27,14,27,16.10
2010,04,27,14,28,14.50
2010,04,27,14,29,17.70
2010,04,27,14,30,16.10
2010,04,27,14,31,17.70
2010,04,27,14,32,6.40
2010,04,27,14,33,22.50
2010,04,27,14,34,27.40
2010,04,27,14,35,22.50
2010,04,27,14,36,22.50
2010,04,27,14,37,11.30
2010,04,27,14,38,11.30
2010,04,27,14,39,12.90
2010,04,27,14,40,8.10
2010,04,27,14,41,16.10
2010,04,27,14,42,24.20
2010,04,27,14,43,22.50
2010,04,27,14,44,19.30
2010,04,27,14,45,22.50
2010,04,27,14,46,20.90
2010,04,27,14,47,29.00
2010,04,27,14,48,19.30
2010,04,27,14,49,19.30
2010,04,27,14,50,14.50
2010,04,27,14,51,9.60
2010,04,27,14,52,8.10
2010,04,27,14,53,8.10
2010,04,27,14,54,25.70
2010,04,27,14,55,22.50
2010,04,27,14,56,24.20
2010,04,27,14,57,24.20
2010,04,27,14,58,27.40
2010,04,27,14,59,27.40
2010,04,27,15,00,25.70
2010,04,27,15,01,20.90
2010,04,27,15,02,22.50
2010,04,27,15,03,24.20
2010,04,27,15,04,22.50
2010,04,27,15,05,20.90
2010,04,27,15,06,22.50
2010,04,27,15,07,11.30
2010,04,27,15,08,29.00
2010,04,27,15,09,32.20
2010,04,27,15,10,27.40
2010,04,27,15,11,22.50
2010,04,27,15,12,19.30
2010,04,27,15,13,20.90
2010,04,27,15,14,19.30
2010,04,27,15,15,24.20
2010,04,27,15,16,19.30
2010,04,27,15,17,20.90
2010,04,27,15,18,25.70
2010,04,27,15,19,33.80
2010,04,27,15,20,24.20
2010,04,27,15,21,20.90
2010,04,27,15,22,16.10
2010,04,27,15,23,20.90
2010,04,27,15,24,27.40
2010,04,27,15,25,19.30
2010,04,27,15,26,22.50
2010,04,27,15,27,33.80
2010,04,27,15,28,29.00
2010,04,27,15,29,19.30
2010,04,27,15,30,25.70
2010,04,27,15,31,25.70
2010,04,27,15,32,22.50
2010,04,27,15,33,32.20
2010,04,27,15,34,22.50
2010,04,27,15,35,20.90
2010,04,27,15,36,24.20
2010,04,27,15,37,25.70
2010,04,27,15,38,27.40
2010,04,27,15,39,35.40
2010,04,27,15,40,29.00
2010,04,27,15,41,37.00
2010,04,27,15,42,29.00
2010,04,27,15,43,32.20
2010,04,27,15,44,27.40
2010,04,27,15,45,32.20
2010,04,27,15,46,33.80
2010,04,27,15,47,40.20
2010,04,27,15,48,27.40
2010,04,27,15,49,37.00
2010,04,27,15,50,35.40
2010,04,27,15,51,37.00
2010,04,27,15,52,30.60
2010,04,27,15,53,27.40
2010,04,27,15,54,35.40
2010,04,27,15,55,41.80
2010,04,27,15,56,49.90
2010,04,27,15,57,40.20
2010,04,27,15,58,40.20
2010,04,27,15,59,27.40
2010,04,27,16,00,33.80
2010,04,27,16,01,30.60
2010,04,27,16,02,37.00
2010,04,27,16,03,24.20
2010,04,27,16,04,29.00
2010,04,27,16,05,25.70
2010,04,27,16,06,20.90
2010,04,27,16,07,27.40
2010,04,27,16,08,27.40
2010,04,27,16,09,27.40
2010,04,27,16,10,20.90
2010,04,27,16,11,30.60
2010,04,27,16,12,22.50
2010,04,27,16,13,30.60
2010,04,27,16,14,29.00
2010,04,27,16,15,25.70
2010,04,27,16,16,20.90
2010,04,27,16,17,22.50
2010,04,27,16,18,17.70
2010,04,27,16,19,12.90
2010,04,27,16,20,11.30
2010,04,27,16,21,19.30
2010,04,27,16,22,17.70
2010,04,27,16,23,29.00
2010,04,27,16,24,30.60
2010,04,27,16,25,37.00
2010,04,27,16,26,32.20
2010,04,27,16,27,32.20
2010,04,27,16,28,24.20
2010,04,27,16,29,30.60
2010,04,27,16,30,32.20
2010,04,27,16,31,14.50
2010,04,27,16,32,12.90
2010,04,27,16,33,17.70
2010,04,27,16,34,25.70
2010,04,27,16,35,22.50
2010,04,27,16,36,17.70
2010,04,27,16,37,38.60
2010,04,27,16,38,33.80
2010,04,27,16,39,35.40
2010,04,27,16,40,32.20
2010,04,27,16,41,24.20
2010,04,27,16,42,14.50
2010,04,27,16,43,16.10
2010,04,27,16,44,14.50
2010,04,27,16,45,16.10
2010,04,27,16,46,22.50
2010,04,27,16,47,25.70
2010,04,27,16,48,17.70
2010,04,27,16,49,24.20
2010,04,27,16,50,24.20
2010,04,27,16,51,22.50
2010,04,27,16,52,17.70
2010,04,27,16,53,30.60
2010,04,27,16,54,29.00
2010,04,27,16,55,24.20
2010,04,27,16,56,19.30
2010,04,27,16,57,12.90
2010,04,27,16,58,20.90
2010,04,27,16,59,22.50
2010,04,27,17,00,25.70
2010,04,27,17,01,30.60
2010,04,27,17,02,19.30
2010,04,27,17,03,29.00
2010,04,27,17,04,20.90
2010,04,27,17,05,22.50
2010,04,27,17,06,17.70
2010,04,27,17,07,14.50
2010,04,27,17,08,25.70
2010,04,27,17,09,19.30
2010,04,27,17,10,20.90
2010,04,27,17,11,24.20
2010,04,27,17,12,17.70
2010,04,27,17,13,24.20
2010,04,27,17,14,14.50
2010,04,27,17,15,11.30
2010,04,27,17,16,24.20
2010,04,27,17,17,20.90
2010,04,27,17,18,22.50
2010,04,27,17,19,22.50
2010,04,27,17,20,11.30
2010,04,27,17,21,8.10
2010,04,27,17,22,16.10
2010,04,27,17,23,24.20
2010,04,27,17,24,16.10
2010,04,27,17,25,22.50
2010,04,27,17,26,27.40
2010,04,27,17,27,20.90
2010,04,27,17,28,16.10
2010,04,27,17,29,32.20
2010,04,27,17,30,17.70
2010,04,27,17,31,29.00
2010,04,27,17,32,27.40
2010,04,27,17,33,32.20
2010,04,27,17,34,30.60
2010,04,27,17,35,20.90
2010,04,27,17,36,29.00
2010,04,27,17,37,29.00
2010,04,27,17,38,24.20
2010,04,27,17,39,24.20
2010,04,27,17,40,30.60
2010,04,27,17,41,14.50
2010,04,27,17,42,20.90
2010,04,27,17,43,40.20
2010,04,27,17,44,32.20
2010,04,27,17,45,32.20
2010,04,27,17,46,20.90
2010,04,27,17,47,35.40
2010,04,27,17,48,32.20
2010,04,27,17,49,35.40
2010,04,27,17,50,41.80
2010,04,27,17,51,38.60
2010,04,27,17,52,40.20
2010,04,27,17,53,32.20
2010,04,27,17,54,35.40
2010,04,27,17,55,24.20
2010,04,27,17,56,29.00
2010,04,27,17,57,30.60
2010,04,27,17,58,30.60
2010,04,27,17,59,29.00
2010,04,27,18,00,22.50
2010,04,27,18,01,19.30
2010,04,27,18,02,19.30
2010,04,27,18,03,20.90
2010,04,27,18,04,19.30
2010,04,27,18,05,24.20
2010,04,27,18,06,30.60
2010,04,27,18,07,22.50